DW1384 Weather Reports


time (UTC)temp
F
wind
direction
speed
knots
gust
knots
rain 1hr
in
rain 24hr
in
rain mn
in
humidity
%
barometer
mb
20260507052325 46 12 0.0 0.0 0.00 0.00 0.00 90 1011.8
20260507051826 46 348 0.0 0.0 0.00 0.00 0.00 90 1011.7
20260507051326 46 312 0.0 0.0 0.00 0.00 0.00 90 1011.7
20260507051045 46 311 0.0 0.0 0.00 0.00 0.00 90 1011.7
20260507050326 46 286 0.0 0.0 0.00 0.00 0.00 90 1011.7
20260507045821 46 301 0.0 0.0 0.00 0.00 0.00 90 1011.6
20260507045323 46 318 0.0 0.0 0.00 0.00 0.00 90 1011.6
20260507044821 46 343 0.0 0.0 0.00 0.00 0.00 90 1011.5
20260507044321 46 343 0.0 0.0 0.00 0.00 0.00 90 1011.4
20260507043821 46 276 0.0 0.0 0.00 0.00 0.00 90 1011.5
20260507043322 46 322 0.0 0.0 0.00 0.00 0.00 90 1011.4
20260507042822 46 321 0.0 0.0 0.00 0.00 0.00 90 1011.3
20260507042321 46 318 0.0 0.0 0.00 0.00 0.00 90 1011.3
20260507041821 46 319 0.0 0.0 0.00 0.00 0.00 90 1011.2
20260507041317 46 307 0.0 0.0 0.00 0.00 0.00 90 1011.2
20260507040819 46 332 0.0 0.0 0.00 0.00 0.00 90 1011.2
20260507040318 46 5 0.0 0.0 0.00 0.00 0.00 90 1011.1
20260507040302 46 324 0.0 0.0 0.00 0.00 0.00 90 1011.0
20260507035317 46 315 0.0 0.0 0.00 0.00 0.00 90 1011.0
20260507035042 46 359 0.0 0.0 0.00 0.00 0.00 90 1011.0
20260507034537 46 336 0.0 0.0 0.00 0.00 0.00 90 1011.0
20260507033819 46 328 0.0 0.0 0.00 0.00 0.00 90 1011.0
20260507033317 46 309 0.0 0.0 0.00 0.00 0.00 90 1010.9
20260507032813 46 310 0.0 0.0 0.00 0.00 0.00 90 1010.9
20260507032315 46 313 0.0 0.0 0.00 0.00 0.00 90 1010.9
20260507031813 46 294 0.0 0.0 0.00 0.00 0.00 90 1010.8
20260507031314 46 315 0.0 0.0 0.00 0.00 0.00 90 1010.8
20260507030814 46 337 0.0 0.0 0.00 0.00 0.00 90 1010.8
20260507030313 46 292 0.0 0.0 0.00 0.00 0.00 90 1010.8
20260507025815 46 309 0.0 0.0 0.00 0.00 0.00 90 1010.7
20260507025313 46 330 0.0 0.0 0.00 0.00 0.00 90 1010.7
20260507024813 46 301 0.0 0.0 0.00 0.00 0.00 90 1010.8
20260507024749 46 315 0.0 0.0 0.00 0.00 0.00 90 1010.7
20260507023809 46 311 0.0 0.0 0.00 0.00 0.00 90 1010.7
20260507023322 46 314 0.0 0.0 0.00 0.00 0.00 90 1010.8
20260507022810 46 302 0.0 0.0 0.00 0.00 0.00 90 1010.7
20260507022309 46 303 0.0 0.0 0.00 0.00 0.00 90 1010.7
20260507021809 46 307 0.0 0.0 0.00 0.00 0.00 90 1010.7
20260507021309 46 287 0.0 0.0 0.00 0.00 0.00 90 1010.6
20260507020810 46 311 0.0 0.0 0.00 0.00 0.00 90 1010.6
20260507020309 46 319 0.0 0.0 0.00 0.00 0.00 90 1010.6
20260507015808 46 303 0.0 0.0 0.00 0.00 0.00 90 1010.6
20260507015318 46 303 0.0 0.0 0.00 0.00 0.00 90 1010.5
20260507014805 46 294 0.0 0.0 0.00 0.00 0.00 90 1010.4
20260507014306 46 297 0.0 0.0 0.00 0.00 0.00 90 1010.4
20260507013806 46 307 0.0 0.0 0.00 0.00 0.00 90 1010.3
20260507013306 46 319 0.0 0.0 0.00 0.00 0.00 90 1010.4
20260507012805 46 298 0.0 0.0 0.00 0.00 0.00 90 1010.4
20260507012533 46 284 0.0 0.0 0.00 0.00 0.00 90 1010.3
20260507011820 46 308 0.0 0.0 0.00 0.00 0.00 90 1010.3
20260507011301 46 291 0.0 0.0 0.00 0.00 0.00 90 1010.3
20260507010801 46 305 0.0 0.0 0.00 0.00 0.00 90 1010.3
20260507010301 46 297 0.0 0.0 0.00 0.00 0.00 90 1010.2
20260507005801 46 292 0.0 0.0 0.00 0.00 0.00 90 1010.2
20260507005259 46 301 0.0 0.0 0.00 0.00 0.00 90 1010.2
20260507004759 46 317 0.0 0.0 0.00 0.00 0.00 90 1010.3
20260507004743 46 316 0.0 0.0 0.00 0.00 0.00 89 1010.2
20260507003758 46 325 0.0 0.0 0.00 0.00 0.00 89 1010.1
20260507003258 46 280 0.0 0.0 0.00 0.00 0.00 89 1010.1
20260507002755 46 292 0.0 0.0 0.00 0.00 0.00 89 1010.1
20260507002516 46 312 0.0 0.0 0.00 0.00 0.00 89 1010.1
20260507001753 46 300 0.0 0.0 0.00 0.00 0.00 89 1010.1
20260507001250 46 309 0.0 0.0 0.00 0.00 0.00 89 1010.0
20260507000804 46 290 0.0 0.0 0.00 0.00 0.00 89 1010.0
20260507000249 46 288 0.0 0.0 0.00 0.00 0.00 89 1010.0
20260506235750 46 303 0.0 0.0 0.00 0.00 0.00 89 1010.0
20260506235258 46 306 0.0 0.0 0.00 0.00 0.00 89 1010.0
20260506235006 46 289 0.0 0.0 0.00 0.00 0.00 89 1010.1
20260506234247 46 303 0.0 0.0 0.00 0.00 0.00 89 1010.0
20260506233744 46 299 0.0 0.0 0.00 0.00 0.00 89 1009.9
20260506233238 46 303 0.0 0.0 0.00 0.00 0.00 89 1009.9
20260506232732 46 297 0.0 0.0 0.00 0.00 0.00 89 1009.9
20260506232226 46 317 0.0 0.0 0.00 0.00 0.00 89 1009.9
20260506231724 46 297 0.0 0.0 0.00 0.00 0.00 89 1009.9
20260506231236 46 317 0.0 0.0 0.00 0.00 0.00 89 1009.9
20260506230723 46 319 0.0 0.0 0.00 0.00 0.00 89 1009.9
20260506230225 46 317 0.0 0.0 0.00 0.00 0.00 89 1009.9
20260506225943 46 313 0.0 0.0 0.00 0.00 0.00 89 1009.8
20260506225222 46 323 0.0 0.0 0.00 0.00 0.00 89 1009.8
20260506224723 46 307 0.0 0.0 0.00 0.00 0.00 89 1009.6
20260506224221 46 353 0.0 0.0 0.00 0.00 0.00 89 1009.6
20260506223721 46 348 0.0 0.0 0.00 0.00 0.00 89 1009.6
20260506223217 46 348 0.0 0.0 0.00 0.00 0.00 89 1009.5
20260506222715 46 348 0.0 0.0 0.00 0.00 0.00 89 1009.6
20260506222441 46 334 0.0 0.0 0.00 0.00 0.00 89 1009.6
20260506221715 46 306 0.0 0.0 0.00 0.00 0.00 89 1009.7
20260506221432 46 303 0.0 0.0 0.00 0.00 0.00 89 1009.6
20260506220715 46 311 0.0 0.0 0.00 0.00 0.00 89 1009.6
20260506220212 46 319 0.0 0.0 0.00 0.00 0.00 89 1009.5
20260506215712 46 336 0.0 0.0 0.00 0.00 0.00 89 1009.5
20260506215210 46 307 0.0 0.0 0.00 0.00 0.00 89 1009.5
20260506214709 46 315 0.0 0.0 0.00 0.00 0.00 89 1009.5
20260506214429 46 1 0.0 0.0 0.00 0.00 0.00 89 1009.5
20260506213707 46 305 0.0 0.0 0.00 0.00 0.00 89 1009.5
20260506213207 47 311 0.0 0.0 0.00 0.00 0.00 89 1009.5
20260506212707 47 309 0.0 0.0 0.00 0.00 0.00 89 1009.4
20260506212206 47 332 0.0 0.0 0.00 0.00 0.00 89 1009.3
20260506211707 47 324 0.0 0.0 0.00 0.00 0.00 89 1009.2
20260506211431 47 272 0.0 0.0 0.00 0.00 0.00 89 1009.2
20260506210707 47 309 0.0 0.0 0.00 0.00 0.00 89 1009.2
20260506210421 47 312 0.0 0.0 0.00 0.00 0.00 89 1009.2
20260506205704 47 305 0.0 0.0 0.00 0.00 0.00 89 1009.1
20260506205203 47 338 0.0 0.0 0.00 0.00 0.00 89 1009.1
20260506204702 47 324 0.0 0.0 0.00 0.00 0.00 89 1009.1
20260506204204 47 303 0.0 0.0 0.00 0.00 0.00 89 1009.1
20260506203702 47 348 0.0 0.0 0.00 0.00 0.00 89 1008.9
20260506203202 47 334 0.0 0.0 0.00 0.00 0.00 89 1008.9
20260506202702 47 332 0.0 0.0 0.00 0.00 0.00 89 1008.8
20260506202202 47 303 0.0 0.0 0.00 0.00 0.00 89 1008.8
20260506201701 47 303 0.0 0.0 0.00 0.00 0.00 88 1008.7
20260506201159 47 312 0.0 0.0 0.00 0.00 0.00 88 1008.7
20260506200658 47 307 0.0 0.0 0.00 0.00 0.00 88 1008.6
20260506200158 47 305 0.0 0.0 0.00 0.00 0.00 88 1008.6
20260506195658 47 313 0.0 0.0 0.00 0.00 0.00 88 1008.5
20260506195158 47 311 0.0 0.0 0.00 0.00 0.00 88 1008.6
20260506194658 47 324 0.0 0.0 0.00 0.00 0.00 88 1008.5
20260506194158 47 348 0.0 0.0 0.00 0.00 0.00 88 1008.6
20260506193700 47 330 0.0 0.0 0.00 0.00 0.00 88 1008.6
20260506193156 48 292 0.0 0.0 0.00 0.00 0.00 88 1008.6
20260506192654 48 311 0.0 0.0 0.00 0.00 0.00 88 1008.6
20260506192155 48 303 0.0 0.0 0.00 0.00 0.00 88 1008.5
20260506191654 48 290 0.0 0.0 0.00 0.00 0.00 88 1008.5
20260506191154 48 284 0.0 0.0 0.00 0.00 0.00 88 1008.4
20260506190654 48 320 0.0 0.0 0.00 0.00 0.00 88 1008.4
20260506190154 48 320 0.0 0.0 0.00 0.00 0.00 88 1008.2
20260506185914 48 348 0.0 0.0 0.00 0.00 0.00 88 1008.1
20260506185155 48 0 0.0 0.0 0.00 0.00 0.00 88 1008.1
20260506184650 48 338 0.0 0.0 0.00 0.00 0.00 88 1008.0
20260506184409 48 306 0.0 0.0 0.00 0.00 0.00 88 1007.9
20260506183652 48 318 0.0 0.0 0.00 0.00 0.00 88 1007.8
20260506183150 48 353 0.0 0.0 0.00 0.00 0.00 88 1007.8
20260506182910 48 290 0.0 0.0 0.00 0.00 0.00 88 1007.8
20260506182150 47 303 0.0 0.0 0.00 0.00 0.00 88 1007.8
20260506181650 48 297 0.0 0.0 0.00 0.00 0.00 88 1007.8
20260506181150 48 317 0.0 0.0 0.00 0.00 0.00 88 1007.7
20260506180650 48 359 0.0 0.0 0.00 0.00 0.00 88 1007.7
20260506180146 48 335 0.0 0.0 0.00 0.00 0.00 88 1007.7
20260506175648 48 359 0.0 0.0 0.00 0.00 0.00 88 1007.6
20260506175415 48 326 0.0 0.0 0.00 0.00 0.00 88 1007.5
20260506174647 48 348 0.0 0.0 0.00 0.00 0.00 88 1007.5
20260506174146 48 338 0.0 0.0 0.00 0.00 0.00 88 1007.4
20260506173647 48 324 0.0 0.0 0.00 0.00 0.00 88 1007.3
20260506173147 48 305 0.0 0.0 0.00 0.00 0.00 88 1007.4
20260506172648 48 307 0.0 0.0 0.00 0.00 0.00 88 1007.3
20260506172146 48 271 0.0 0.0 0.00 0.00 0.00 88 1007.3
20260506171642 48 299 0.0 0.0 0.00 0.00 0.00 88 1007.2
20260506171142 48 299 0.0 0.0 0.00 0.00 0.00 88 1007.2
20260506170643 48 313 0.0 0.0 0.00 0.00 0.00 88 1007.2
20260506170144 48 303 0.0 0.0 0.00 0.00 0.00 88 1007.2
20260506165643 48 303 0.0 0.0 0.00 0.00 0.00 88 1007.2
20260506165145 48 321 0.0 0.0 0.00 0.00 0.00 88 1007.1
20260506164908 48 343 0.0 0.0 0.00 0.00 0.00 88 1007.0
20260506164143 48 338 0.0 0.0 0.00 0.00 0.00 88 1007.0
20260506163642 48 335 0.0 0.0 0.00 0.00 0.00 88 1006.9
20260506163138 48 309 0.0 0.0 0.00 0.00 0.00 88 1007.0
20260506162638 48 307 0.0 0.0 0.00 0.00 0.00 88 1006.9
20260506162409 48 334 0.0 0.0 0.00 0.00 0.00 88 1007.0
20260506161651 48 324 0.0 0.0 0.00 0.00 0.00 88 1007.0
20260506161153 48 359 0.0 0.0 0.00 0.00 0.00 88 1007.0
20260506160651 48 357 0.0 0.0 0.00 0.00 0.00 88 1007.0
20260506160152 48 348 0.0 0.0 0.00 0.00 0.00 88 1006.9
20260506155917 48 331 0.0 0.0 0.00 0.00 0.00 88 1006.8
20260506155400 48 317 0.0 0.0 0.00 0.00 0.00 88 1006.9
20260506154638 48 308 0.0 0.0 0.00 0.00 0.00 88 1006.8
20260506154138 48 313 0.0 0.0 0.00 0.00 0.00 87 1006.8
20260506153638 48 288 0.0 0.0 0.00 0.00 0.00 87 1006.7
20260506153137 48 326 0.0 0.0 0.00 0.00 0.00 87 1006.8
20260506152634 49 303 0.0 0.0 0.00 0.00 0.00 87 1006.7
20260506152134 49 343 0.0 0.0 0.00 0.00 0.00 87 1006.7
20260506151635 49 335 0.0 0.0 0.00 0.00 0.00 87 1006.7
20260506151352 49 319 0.0 0.0 0.00 0.00 0.00 87 1006.7
20260506150850 49 325 0.0 0.0 0.00 0.00 0.00 87 1006.7
20260506150348 49 8 0.0 0.0 0.00 0.00 0.00 87 1006.7
20260506145628 49 353 0.0 0.0 0.00 0.00 0.00 86 1006.7
20260506145128 49 353 0.0 0.0 0.00 0.00 0.00 86 1006.7
20260506144855 49 321 0.0 0.0 0.00 0.00 0.00 86 1006.6
20260506144128 49 326 0.0 0.0 0.00 0.00 0.00 87 1006.5
20260506143852 49 336 0.0 0.0 0.00 0.00 0.00 87 1006.4
20260506143128 50 357 0.0 0.0 0.00 0.00 0.00 87 1006.4
20260506142627 50 353 0.0 0.0 0.00 0.00 0.00 87 1006.4
20260506142124 50 30 0.0 0.0 0.00 0.00 0.00 87 1006.4
20260506141624 50 359 0.0 0.0 0.00 0.00 0.00 87 1006.4
20260506141119 50 305 0.0 0.0 0.00 0.00 0.00 87 1006.4
20260506140611 50 332 0.0 0.0 0.00 0.00 0.00 87 1006.5
20260506140109 50 30 0.0 0.0 0.00 0.00 0.00 87 1006.4
20260506135821 50 343 0.0 0.0 0.00 0.00 0.00 87 1006.3
20260506135315 50 328 0.0 0.0 0.00 0.00 0.00 87 1006.2
20260506134549 50 321 0.0 0.0 0.00 0.00 0.00 87 1006.2
20260506134041 50 335 0.0 0.0 0.00 0.00 0.00 87 1006.3
20260506133535 50 331 0.0 0.0 0.00 0.00 0.00 87 1006.2
20260506133029 50 301 0.0 0.0 0.00 0.00 0.00 87 1006.2
20260506132523 51 316 0.0 0.0 0.00 0.00 0.00 87 1006.1
20260506132031 51 3 0.0 0.0 0.00 0.00 0.00 87 1006.1
20260506131512 51 295 0.0 0.0 0.00 0.00 0.00 87 1006.0
20260506131006 51 359 0.0 0.0 0.00 0.00 0.00 86 1006.0
20260506130459 51 309 0.0 0.0 0.00 0.00 0.00 86 1006.0
20260506125953 51 301 0.0 0.0 0.00 0.00 0.00 85 1006.0
20260506125708 52 317 0.0 0.0 0.00 0.00 0.00 85 1005.9
20260506124948 52 317 0.0 0.0 0.00 0.00 0.00 85 1005.9
20260506124712 52 305 0.0 0.0 0.00 0.00 0.00 85 1005.9
20260506123948 52 287 0.0 0.0 0.00 0.00 0.00 85 1005.9
20260506123448 52 301 0.0 0.0 0.00 0.00 0.00 85 1005.9
20260506122948 52 348 0.0 0.0 0.00 0.00 0.00 85 1005.9
20260506122449 52 327 0.0 0.0 0.00 0.00 0.00 85 1005.9
20260506121948 52 316 0.0 0.0 0.00 0.00 0.00 85 1005.8
20260506121448 52 309 0.0 0.0 0.00 0.00 0.00 85 1005.8
20260506120946 52 313 0.0 0.0 0.00 0.00 0.00 85 1005.8
20260506120448 52 316 0.0 0.0 0.00 0.00 0.00 85 1005.8
20260506115947 53 310 0.0 0.0 0.00 0.00 0.00 85 1005.7
20260506115444 53 348 0.0 0.0 0.00 0.00 0.00 85 1005.6
20260506114944 53 337 0.0 0.0 0.00 0.00 0.00 85 1005.6
20260506114445 53 343 0.0 0.0 0.00 0.00 0.00 84 1005.5
20260506113943 53 334 0.0 0.0 0.00 0.00 0.00 85 1005.5
20260506113437 53 18 0.0 0.0 0.00 0.00 0.00 85 1005.5
20260506112929 53 30 0.0 0.0 0.00 0.00 0.00 85 1005.5
20260506112424 53 299 0.0 0.0 0.00 0.00 0.00 85 1005.5
20260506112144 53 1 0.0 0.0 0.00 0.00 0.00 85 1005.6
20260506111633 54 324 0.0 0.0 0.00 0.00 0.00 85 1005.5
20260506111123 54 22 0.0 0.0 0.00 0.00 0.00 85 1005.5
20260506110359 53 302 0.0 0.0 0.00 0.00 0.00 85 1005.5
20260506105853 53 296 0.0 0.0 0.00 0.00 0.00 85 1005.4
20260506105348 53 318 0.0 0.0 0.00 0.00 0.00 85 1005.3
20260506105105 53 309 0.0 0.0 0.00 0.00 0.00 85 1005.4
20260506104336 54 269 0.0 0.0 0.00 0.00 0.00 85 1005.4
20260506103829 54 306 0.0 0.0 0.00 0.00 0.00 85 1005.4
20260506103324 54 270 0.0 0.0 0.00 0.00 0.00 85 1005.4
20260506102818 54 294 0.0 0.0 0.00 0.00 0.00 85 1005.3
20260506102311 54 343 0.0 0.0 0.00 0.00 0.00 86 1005.3
20260506102022 54 336 0.0 0.0 0.00 0.00 0.00 86 1005.3
20260506101521 54 305 0.0 0.0 0.00 0.00 0.00 86 1005.2
20260506100753 54 10 0.0 0.0 0.00 0.00 0.00 87 1005.2
20260506100734 53 318 0.0 0.0 0.00 0.00 0.00 87 1005.1
20260506095742 53 330 0.0 0.0 0.00 0.00 0.00 87 1005.1
20260506095718 53 284 0.0 0.0 0.00 0.00 0.00 88 1005.1
20260506094730 53 273 0.0 0.0 0.00 0.00 0.00 88 1005.1
20260506094223 53 255 0.0 0.0 0.00 0.00 0.00 88 1005.0
20260506093717 54 339 0.0 0.0 0.00 0.00 0.00 88 1005.0
20260506093435 53 15 0.0 0.0 0.00 0.00 0.00 88 1005.1
20260506092708 53 294 0.0 0.0 0.00 0.00 0.00 88 1005.2
20260506092208 53 7 0.0 0.0 0.00 0.00 0.00 88 1005.1
20260506091708 53 320 0.0 0.0 0.00 0.00 0.00 89 1005.1
20260506091208 53 321 0.0 0.0 0.00 0.00 0.00 89 1005.1
20260506090709 53 326 0.0 0.0 0.00 0.00 0.00 89 1005.1
20260506090206 53 7 0.0 0.0 0.00 0.00 0.00 89 1005.1
20260506085706 53 337 0.0 0.0 0.00 0.00 0.00 89 1005.1
20260506085207 52 3 0.0 0.0 0.00 0.00 0.00 89 1005.0
20260506084704 52 353 0.0 0.0 0.00 0.00 0.00 89 1004.9
20260506084202 52 343 0.0 0.0 0.00 0.00 0.00 89 1004.9
20260506083702 53 336 0.0 0.0 0.00 0.00 0.00 89 1004.8
20260506083202 52 6 0.0 0.0 0.00 0.00 0.00 89 1004.8
20260506082920 52 330 0.0 0.0 0.00 0.00 0.00 89 1004.7
20260506082410 53 319 0.0 0.0 0.00 0.00 0.00 90 1004.5
20260506082120 53 7 0.0 0.0 0.00 0.00 0.00 90 1004.5
20260506081125 52 325 0.0 0.0 0.00 0.00 0.00 90 1004.6
20260506080615 52 358 0.0 0.0 0.00 0.00 0.00 90 1004.5
20260506080116 52 24 0.0 0.0 0.00 0.00 0.00 90 1004.6
20260506073516 52 305 0.0 0.0 0.00 0.00 0.00 90 1004.6
20260506073001 52 353 0.0 0.0 0.00 0.00 0.00 90 1004.6
20260506072453 52 348 0.0 0.0 0.00 0.00 0.00 90 1004.6
20260506071939 51 348 0.0 0.0 0.00 0.00 0.00 90 1004.6
20260506071431 51 319 0.0 0.0 0.00 0.00 0.00 90 1004.6
20260506070919 51 332 0.0 0.0 0.00 0.00 0.00 90 1004.6
20260506070403 52 358 0.0 0.0 0.00 0.00 0.00 90 1004.7
20260506062129 51 333 0.0 0.0 0.00 0.00 0.00 90 1004.5
20260506061625 51 329 0.0 0.0 0.00 0.00 0.00 90 1004.4
20260506061128 51 330 0.0 0.0 0.00 0.00 0.00 90 1004.4
20260506060638 51 328 0.0 0.0 0.00 0.00 0.00 90 1004.4
20260506060127 51 343 0.0 0.0 0.00 0.00 0.00 90 1004.4